Accueil
METAR-TAF:

METAR-TAF

Aéroports :

Nenana, Alaska, États-Unis

latitude: 64-33N, longitude: 149-05W, altitude: 110 m

Observation

Le bulletin a été fait il y a 48 minutes, à 21:53 UTC
Vent calme
Température -28°C
Humidité 68%
Pression 1008 hPa
Visibilité: 16.1 km
Quelques nuages à une hauteur de 2600 ft
Quelques nuages à une hauteur de 9000 ft

METAR: PANN 222153Z AUTO 00000KT 10SM FEW026 FEW090 M28/M32 A2978 RMK AO2 SLP103 T12831322 TSNO

Heure: 13:41 (22:41 UTC)


TAF: absent

Observations et prévisions météorologiques de plus de 4000 aéroports (messages METAR et TAF).

Les stations disponibles sont représentées par des disques jaunes et rouges sur la carte.

Passer la souris dessus pour voir le nom de la station.

Cliquer dessus pour voir les observations et prévisions météorologiques.

Pour changer de carte: cliquez sur les boutons verts avec une croix noire pour zoomer, sur le bouton vert avec un tiret pour effectuer un zoom arrière, ou sur les flèches vertes pour les cartes adjacentes.


METAR-TAF: